sat.trackr.live / text

‹ back to catalog

IRIDIUM 135

NORAD 43070 · 2017-083A

PAYLOAD ACTIVE UNKNOWN

§ Identity

Operator
Country
US
Launch date
2017-12-23
Launch site
AFWTR
Launch vehicle
Mass (kg)
RCS (m²)

Purposes: comms

External: N2YO · Heavens-Above · Gunter

§ Orbital elements

Epoch: 2026-09-20T00:52:55.162848Z

Period
100.40 min
Inclination
86.3911°
Eccentricity
0.0002269
Mean motion
14.34217545 rev/d
Perigee alt
776.0 km
Apogee alt
779.3 km
Semi-major
7,155.8 km
B*
-9.7002e-7
RAAN
282.3598°
Arg perigee
91.8512°
Mean anomaly
268.2944°
Rev number
45,774

§ Raw data

IRIDIUM 1351 43070U 17083A   26263.03674957  .00000017  00000+0 -97002-6 0  99952 43070  86.3911 282.3598 0002269  91.8512 268.2944 14.34217545457744

JSON: /api/v1/satellites/43070 · /tle

For live sub-satellite position, see the globe view (requires WebGL).

§ Visibility from observer

Set your observer location to see the next 7 days of passes ≥ 10°. The values pass through the URL so the page stays shareable.

No JS? Fill the form by hand. The geolocation button needs JavaScript.